Wetbulb
36.88 34.36 32.42 34.85 35.60 34.03 32.54 30.68 31.64 32.44 36.76 34.46 35.25 34.93 38.01 36.11 33.43 31.91 31.73 31.63 31.46 31.75 32.99 33.21 33.17 32.71 33.16 34.27 35.09 35.67 36.50 37.22 38.91 38.94 41.06 40.54 38.28 38.89 39.24 40.49 40.80 40.92 41.58 43.25
33.92 31.62 37.25 36.72 36.04 34.72 32.17 30.63 30.55 33.76 36.15 35.46 34.25 34.87 35.23 34.51 33.32 33.42 32.14 31.29 31.05 30.64 31.04 31.84 31.30 30.96 30.70 31.15 32.44 33.64 34.84 35.72 37.02 37.44 37.51 37.71 37.46 36.70 36.57 37.88 36.50 36.69 37.06 38.46
32.89 36.78 37.93 36.81 33.61 32.79 31.31 30.69 30.19 32.95 33.31 33.45 31.09 31.32 31.30 32.58 33.14 33.41 33.03 32.15 31.43 30.36 29.68 29.62 29.60 28.60 28.45 28.71 28.70 31.23 31.92 33.11 34.25 35.70 36.48 36.02 35.30 33.77 33.02 32.41 32.83 32.72 33.28 34.35
33.76 37.18 37.56 33.94 33.85 34.19 29.91 35.02 34.88 32.79 31.06 28.10 30.82 24.94 29.48 30.74 30.51 31.08 30.59 29.57 29.75 30.01 29.91 29.28 28.30 27.65 27.67 27.77 28.42 29.34 30.20 30.63 31.78 32.51 32.28 30.79 29.62 28.35 28.96 28.95 30.04 30.84 31.32 31.37
35.47 34.74 33.76 33.72 34.91 36.20 33.79 35.40 33.49 31.55 29.16 26.44 27.12 24.80 28.57 30.40 29.13 29.57 29.60 29.63 29.52 29.50 29.25 28.75 28.07 28.61 27.99 27.95 27.04 27.44 28.81 29.22 29.33 29.56 29.67 29.25 28.02 27.93 27.56 27.66 27.94 28.38 29.30 29.72
35.53 36.01 36.37 36.65 34.77 36.43 35.82 33.72 31.85 29.37 28.12 22.39 29.00 28.28 26.46 28.18 31.03 30.03 30.35 30.04 30.03 29.34 28.94 28.69 28.64 28.40 27.43 27.21 27.23 27.34 27.89 27.62 27.88 28.12 27.55 26.75 26.05 25.59 26.27 25.78 26.15 26.45 27.03 27.83
32.75 34.15 34.80 35.82 33.10 32.64 32.51 30.84 25.00 22.69 21.76 23.22 27.25 24.86 29.09 31.21 31.36 31.91 31.22 30.04 29.73 29.70 28.59 28.13 27.24 26.10 26.13 26.18 26.62 27.73 26.97 26.43 26.62 26.70 26.41 26.04 25.31 25.01 24.69 24.44 24.30 24.50 24.79 24.87
29.34 28.11 34.45 36.35 35.10 32.41 30.97 31.25 26.24 19.85 19.39 22.26 26.59 24.50 30.43 29.85 30.74 31.85 32.76 31.10 30.21 29.42 29.27 28.73 27.91 26.40 25.95 26.09 25.94 26.37 26.25 25.87 25.99 25.81 25.46 25.39 25.26 24.63 24.40 24.09 23.85 23.72 23.82 24.28
28.76 30.23 33.34 33.60 34.32 35.37 30.38 28.48 31.78 25.79 14.61 20.27 26.20 27.89 29.29 29.60 28.60 29.04 29.11 29.70 29.06 28.91 29.09 29.20 28.61 27.05 26.16 25.46 25.59 25.92 25.72 25.59 25.66 25.47 25.08 24.65 24.61 24.16 23.20 22.97 23.45 23.30 23.89 25.84
34.48 29.50 32.54 32.71 35.42 34.44 33.32 35.15 28.26 26.43 16.55 16.51 23.55 24.25 27.77 28.18 28.22 28.02 28.24 28.78 28.91 29.67 29.61 29.01 28.50 27.62 27.11 26.31 25.76 25.26 25.21 25.07 25.18 25.18 25.15 24.46 24.13 23.75 23.37 23.58 23.33 23.30 23.92 24.48
35.27 33.83 30.10 32.51 31.02 30.84 31.55 29.84 29.73 30.05 26.36 19.96 15.76 23.79 29.24 30.55 29.31 28.39 29.50 30.47 30.12 30.09 30.24 29.30 28.29 28.22 27.92 26.79 25.52 24.88 24.99 24.98 24.76 25.19 24.83 24.95 24.40 23.73 23.78 23.54 23.14 23.18 23.31 23.50
36.51 32.72 26.01 29.57 31.60 31.94 30.23 31.12 30.77 27.57 23.28 22.25 22.74 27.07 29.90 30.21 30.68 31.59 31.00 31.31 30.67 30.43 29.66 29.85 28.57 27.60 26.36 26.57 26.20 25.59 25.21 25.16 25.67 25.32 24.54 25.23 24.52 24.23 23.32 22.71 22.93 23.21 22.90 23.48
37.25 30.88 20.15 25.60 29.22 29.42 28.81 29.91 30.46 28.53 25.56 20.48 25.46 25.43 31.22 28.77 29.38 30.42 29.86 29.94 30.34 30.28 29.32 28.50 27.11 25.82 25.67 24.43 25.17 25.31 25.72 25.85 26.07 25.00 24.71 24.55 24.17 23.19 22.56 22.39 22.69 22.81 22.22 21.63
41.02 31.36 28.37 27.51 27.44 29.96 26.96 29.20 29.48 30.18 27.35 27.55 27.85 29.55 27.48 29.58 30.66 29.76 30.01 30.42 30.25 29.96 29.45 27.78 25.55 24.63 24.70 25.08 25.14 24.81 24.56 24.90 25.69 24.97 24.24 23.57 23.11 22.55 21.66 21.79 21.36 20.45 20.07 18.73
37.85 29.72 29.32 29.60 28.71 29.26 29.17 28.92 27.82 27.29 29.99 28.60 30.00 27.50 28.90 31.85 31.50 31.42 30.97 30.18 29.50 29.54 28.72 26.70 26.93 25.98 25.67 24.66 24.67 24.34 23.78 23.88 23.97 23.30 23.35 22.94 22.63 21.48 20.64 19.33 18.39 17.86 17.76 17.33
33.59 30.34 28.84 24.56 27.54 28.52 26.67 28.36 27.47 29.46 27.32 26.82 25.70 25.49 30.92 30.22 30.62 28.32 29.24 29.85 27.85 27.86 29.32 28.40 27.67 27.69 26.23 24.80 24.52 24.76 23.73 23.58 23.68 22.97 22.42 21.23 20.39 19.87 18.08 17.36 16.71 16.33 15.69 14.71
31.32 27.38 24.55 26.12 22.78 23.71 23.74 25.78 27.78 27.33 28.15 29.55 24.61 30.69 24.84 25.99 26.79 26.16 26.24 25.82 26.31 27.94 29.72 30.09 27.02 27.18 26.94 25.29 26.01 23.66 23.46 23.33 20.85 19.74 16.92 17.08 16.80 15.85 15.26 14.75 14.25 13.43 12.29 12.43
27.62 25.90 24.95 19.44 20.49 16.50 23.55 21.35 25.43 29.62 28.79 28.93 24.61 21.55 22.97 24.50 24.42 26.08 25.49 25.93 25.89 26.15 26.61 28.11 27.00 24.92 24.98 24.91 23.98 23.22 23.18 20.89 19.36 17.53 15.11 15.00 14.91 12.73 12.76 11.79 10.74 10.55 10.41 9.70
29.14 27.76 19.37 18.56 16.95 20.41 22.68 22.01 21.03 22.07 21.96 22.07 24.50 25.13 23.33 23.68 21.32 21.53 24.99 25.17 25.62 24.88 25.39 25.15 24.90 24.32 23.10 23.13 23.04 21.97 20.31 19.97 18.13 16.55 16.37 14.38 12.38 9.55 9.77 5.91 7.19 8.06 7.49 7.19
27.61 30.13 28.99 15.61 16.09 14.98 17.65 22.11 24.41 24.38 15.17 19.28 21.16 21.53 19.23 20.78 14.31 19.26 24.03 24.05 24.34 24.73 24.78 24.98 25.16 24.03 22.81 22.30 21.60 20.04 18.47 16.59 15.11 16.10 16.09 13.44 11.31 5.64 4.73 7.07 5.35 5.70 3.13 7.12
20.56 20.75 23.59 18.57 18.09 17.59 20.20 20.92 24.02 13.89 19.59 15.65 18.21 20.46 19.66 18.23 21.99 24.28 24.43 23.63 24.86 25.08 24.90 24.52 23.05 23.00 22.68 20.49 18.91 18.09 16.11 14.76 14.40 13.60 11.41 9.88 9.05 4.96 4.14 2.86 3.68 0.72 0.57 4.15
18.59 18.88 16.85 17.58 15.92 14.50 22.27 21.90 19.62 22.73 22.23 22.71 22.05 22.80 22.81 23.78 24.75 24.05 24.25 24.27 23.82 24.19 24.53 24.92 22.74 22.16 20.69 18.80 18.23 16.33 15.09 13.76 11.50 9.42 8.59 7.26 5.08 2.74 4.70 -5.73 -3.86 -4.54 -3.80 -4.01
17.44 21.55 17.53 21.22 19.75 22.57 25.10 24.72 25.94 25.33 22.87 22.76 23.12 24.01 24.29 23.42 23.02 23.97 23.03 22.59 23.13 23.65 23.77 23.20 21.69 20.63 17.91 15.97 16.72 14.99 12.79 10.65 7.82 5.49 4.57 1.39 1.53 4.11 3.83 -3.70 -1.30 -2.67 -6.07 -5.63
18.71 20.50 18.58 19.20 20.23 21.48 23.82 25.30 24.72 25.25 25.21 25.47 25.15 24.45 24.11 23.57 23.91 23.32 22.54 22.40 22.24 21.85 21.40 18.56 15.77 15.70 14.64 11.93 13.67 10.66 9.63 7.83 2.04 -2.07 2.56 3.61 2.30 2.45 1.83 2.95 2.36 -4.49 -4.99 -2.72
20.46 19.74 16.25 16.52 20.40 21.41 23.30 24.23 25.71 25.42 25.10 24.15 23.84 24.32 24.16 23.26 22.99 22.24 21.96 21.55 21.29 21.14 18.56 15.94 17.05 17.23 15.90 11.11 8.61 6.25 6.46 3.53 0.15 -0.58 1.77 3.01 2.48 1.33 1.13 1.30 1.28 1.04 2.06 2.85
20.78 19.23 16.95 14.84 23.41 23.58 24.46 25.59 26.29 24.48 24.59 24.35 23.21 21.88 22.19 22.56 22.72 22.16 21.29 21.71 20.93 20.63 15.30 14.13 14.15 13.77 10.97 9.53 6.03 2.09 1.14 0.62 -0.30 1.16 3.35 3.03 2.14 1.21 1.35 0.74 -0.13 6.90 11.49 14.06
MSLP
1018.29 1018.96 1019.03 1018.79 1018.85 1019.06 1019.40 1019.81 1019.62 1018.91 1018.51 1018.71 1018.88 1019.45 1019.55 1021.02 1022.33 1023.78 1024.78 1025.47 1025.93 1026.15 1026.25 1026.09 1025.85 1025.52 1024.98 1024.25 1023.68 1023.32 1023.04 1023.04 1022.34 1022.05 1022.30 1022.93 1023.54 1023.88 1023.93 1024.07 1024.32 1024.03 1023.82 1023.42
1019.05 1018.77 1018.00 1018.46 1019.00 1019.40 1019.65 1019.92 1019.71 1019.39 1018.88 1019.24 1019.25 1019.70 1020.21 1021.63 1022.83 1023.78 1024.98 1025.79 1026.20 1026.44 1026.42 1026.23 1026.04 1025.91 1025.73 1025.69 1025.13 1024.41 1024.13 1023.70 1023.29 1023.19 1023.37 1023.80 1024.25 1024.86 1024.98 1025.16 1025.07 1025.24 1025.10 1024.87
1018.49 1017.90 1017.88 1018.51 1019.06 1019.52 1019.80 1019.84 1019.83 1019.63 1019.47 1019.64 1020.13 1020.46 1021.01 1022.54 1023.43 1024.28 1025.13 1025.82 1026.32 1026.74 1027.01 1027.13 1027.02 1026.85 1026.70 1026.18 1025.68 1025.76 1025.37 1024.92 1024.61 1024.25 1024.07 1024.45 1025.04 1025.61 1025.76 1026.15 1026.25 1026.46 1026.18 1026.07
1018.44 1017.69 1017.94 1018.37 1018.65 1019.00 1019.57 1019.26 1019.59 1020.09 1020.53 1020.75 1020.72 1021.05 1021.07 1022.46 1023.90 1024.91 1025.57 1026.09 1026.65 1026.89 1027.15 1027.39 1027.54 1027.17 1026.97 1027.08 1026.73 1026.07 1025.85 1025.72 1025.65 1025.54 1025.40 1025.70 1026.27 1026.94 1027.60 1027.54 1027.24 1027.21 1027.09 1027.00
1017.52 1017.60 1017.84 1018.05 1017.99 1018.52 1018.96 1019.20 1020.00 1020.54 1021.14 1021.42 1021.47 1022.10 1021.02 1022.25 1023.73 1024.80 1025.63 1026.09 1026.63 1026.97 1027.20 1027.30 1027.71 1027.90 1027.83 1027.59 1027.08 1026.93 1026.98 1026.86 1026.82 1026.64 1026.54 1026.93 1027.37 1028.01 1028.19 1028.15 1027.90 1027.72 1027.97 1027.74
1017.56 1017.30 1017.31 1017.19 1017.64 1017.91 1018.66 1019.56 1020.65 1021.57 1022.10 1022.29 1021.40 1021.86 1021.40 1022.00 1022.02 1023.52 1024.99 1026.11 1026.71 1027.30 1027.49 1027.67 1027.90 1028.10 1028.17 1028.19 1028.11 1027.97 1027.76 1027.82 1027.51 1027.47 1027.49 1027.62 1028.25 1028.77 1028.64 1028.82 1028.59 1028.76 1028.78 1028.56
1017.53 1017.15 1016.92 1016.97 1017.73 1018.35 1018.68 1019.88 1021.35 1022.41 1022.98 1022.30 1021.69 1022.11 1020.33 1020.81 1021.59 1022.61 1024.00 1025.10 1026.38 1027.10 1027.56 1027.82 1027.95 1028.24 1028.46 1028.45 1028.52 1028.22 1028.01 1028.18 1028.19 1028.02 1028.24 1028.40 1028.65 1029.05 1029.19 1029.55 1029.58 1029.68 1029.67 1029.46
1017.32 1017.18 1016.58 1016.45 1016.56 1017.21 1018.49 1019.15 1020.36 1021.57 1022.91 1022.27 1022.35 1021.77 1020.51 1021.45 1022.31 1022.99 1023.57 1024.82 1025.93 1026.46 1027.30 1027.85 1028.20 1028.54 1028.55 1028.62 1028.63 1028.61 1028.47 1028.48 1028.59 1028.72 1028.88 1029.21 1029.46 1029.63 1029.77 1029.81 1030.03 1030.11 1030.14 1030.05
1016.49 1016.25 1015.98 1016.23 1016.52 1017.01 1018.55 1019.15 1019.47 1021.21 1023.41 1022.71 1020.80 1020.35 1020.73 1021.41 1022.41 1023.17 1024.13 1024.95 1025.63 1026.11 1026.53 1027.14 1027.69 1028.09 1028.11 1028.30 1028.68 1028.79 1028.94 1028.97 1028.99 1029.13 1029.43 1029.49 1029.72 1029.73 1029.99 1030.18 1030.05 1030.20 1030.03 1029.90
1015.12 1015.99 1016.30 1016.55 1016.70 1017.40 1017.59 1018.49 1019.84 1021.37 1022.69 1022.27 1020.49 1020.34 1020.17 1021.18 1022.02 1023.34 1024.17 1024.72 1025.50 1025.98 1026.27 1026.55 1027.03 1027.63 1028.03 1028.12 1028.43 1028.75 1028.81 1028.89 1029.08 1029.17 1029.25 1029.66 1029.92 1030.07 1030.10 1030.11 1030.21 1030.20 1030.04 1030.01
1015.05 1015.40 1017.01 1016.93 1017.17 1017.35 1018.35 1018.53 1019.51 1020.44 1021.41 1021.50 1020.91 1019.44 1018.90 1019.51 1021.16 1022.50 1023.55 1023.97 1024.43 1025.26 1025.81 1026.21 1026.65 1027.03 1027.30 1027.89 1028.30 1028.48 1028.64 1028.79 1028.99 1029.12 1029.29 1029.44 1029.65 1029.79 1029.97 1030.26 1030.41 1030.47 1030.41 1030.29
1014.59 1015.41 1016.85 1016.99 1017.20 1017.51 1017.73 1018.05 1018.68 1019.70 1020.76 1020.90 1021.25 1018.27 1019.06 1019.29 1020.05 1021.00 1022.27 1023.19 1023.82 1024.45 1025.08 1025.53 1026.10 1026.76 1027.44 1027.79 1027.98 1028.17 1028.33 1028.55 1028.69 1028.79 1029.01 1029.29 1029.56 1029.79 1029.98 1030.27 1030.26 1030.37 1030.43 1030.35
1014.14 1015.10 1016.87 1017.68 1017.98 1017.74 1018.00 1018.23 1018.62 1019.06 1019.43 1019.48 1020.47 1018.97 1019.34 1019.44 1020.25 1021.13 1021.88 1022.45 1023.26 1024.22 1024.78 1025.20 1025.80 1026.31 1026.86 1027.24 1027.65 1027.90 1028.12 1028.21 1028.43 1028.72 1029.04 1029.37 1029.66 1029.90 1030.05 1030.09 1030.23 1030.36 1030.34 1030.35
1013.10 1014.30 1014.87 1015.67 1016.43 1016.59 1017.66 1017.84 1018.61 1018.70 1019.17 1018.81 1018.45 1018.65 1019.65 1020.02 1020.24 1020.87 1021.49 1022.04 1022.71 1023.34 1024.00 1024.53 1025.33 1025.69 1026.12 1026.51 1026.84 1027.30 1027.63 1027.89 1028.25 1028.68 1029.06 1029.43 1029.71 1029.88 1030.01 1030.14 1030.29 1030.29 1030.30 1030.34
1013.88 1014.75 1015.48 1015.80 1016.20 1016.70 1016.75 1016.87 1017.65 1018.46 1017.98 1018.08 1018.19 1018.45 1019.08 1019.37 1019.76 1020.07 1020.64 1021.51 1022.33 1023.18 1023.57 1023.95 1024.37 1024.89 1025.45 1026.06 1026.47 1026.78 1026.99 1027.40 1027.89 1028.52 1028.99 1029.35 1029.69 1029.89 1030.07 1030.18 1030.34 1030.37 1030.37 1030.37
1015.03 1015.66 1016.19 1017.08 1017.28 1017.67 1017.67 1017.04 1017.09 1017.61 1017.65 1017.79 1018.65 1018.23 1018.47 1019.03 1019.48 1020.24 1020.77 1021.24 1021.77 1022.25 1022.73 1023.14 1023.77 1024.31 1024.82 1025.44 1025.82 1026.05 1026.47 1027.04 1027.50 1028.11 1028.75 1029.22 1029.63 1029.87 1029.97 1030.18 1030.38 1030.42 1030.40 1030.39
1015.99 1016.58 1017.45 1017.94 1018.48 1018.82 1018.58 1016.39 1016.86 1017.49 1017.28 1017.60 1018.67 1017.96 1018.97 1019.49 1019.94 1020.26 1020.60 1021.17 1021.65 1022.14 1022.40 1022.84 1023.28 1023.70 1024.08 1024.59 1025.00 1025.60 1025.93 1026.55 1027.36 1028.08 1028.77 1029.22 1029.58 1029.78 1030.01 1030.36 1030.54 1030.56 1030.47 1030.35
1016.19 1017.05 1017.43 1018.82 1019.69 1018.85 1016.68 1016.20 1016.60 1016.97 1017.50 1018.10 1018.63 1018.78 1019.04 1019.61 1020.04 1020.23 1020.51 1020.95 1021.50 1021.75 1022.07 1022.48 1022.82 1023.31 1023.71 1023.95 1024.51 1025.06 1025.68 1026.58 1027.39 1028.05 1028.71 1029.20 1029.55 1029.74 1030.06 1030.40 1030.54 1030.53 1030.45 1030.40
1016.41 1016.75 1018.23 1019.06 1019.11 1017.44 1016.26 1016.78 1017.42 1017.54 1017.67 1017.82 1018.67 1018.69 1019.25 1020.02 1020.50 1020.50 1020.37 1020.59 1020.95 1021.27 1021.55 1021.82 1022.20 1022.69 1023.11 1023.75 1024.36 1024.95 1025.68 1026.38 1027.24 1027.82 1028.41 1028.97 1029.18 1029.58 1029.96 1030.40 1030.53 1030.57 1030.58 1030.55
1017.12 1016.85 1017.43 1018.96 1018.67 1017.91 1016.66 1016.49 1016.74 1017.52 1018.12 1017.91 1017.96 1018.69 1019.66 1020.24 1020.88 1019.85 1019.93 1020.32 1020.90 1021.00 1021.27 1021.35 1021.65 1022.36 1022.91 1023.49 1024.25 1024.98 1025.67 1026.34 1026.98 1027.49 1028.03 1028.71 1029.15 1029.57 1030.03 1030.35 1030.64 1030.78 1030.82 1030.49
1017.64 1017.91 1017.50 1018.13 1017.94 1017.21 1016.45 1016.63 1017.13 1018.14 1017.79 1017.21 1018.03 1018.88 1019.77 1020.17 1019.70 1019.32 1019.39 1019.82 1020.07 1020.55 1020.82 1021.02 1021.57 1022.15 1022.55 1023.26 1024.11 1025.01 1025.65 1026.22 1026.72 1027.42 1028.12 1028.74 1029.21 1029.66 1030.04 1030.39 1030.68 1030.79 1030.70 1030.49
1016.63 1017.45 1017.82 1018.00 1017.82 1017.12 1016.19 1017.38 1017.35 1016.71 1016.73 1017.16 1018.24 1018.70 1019.28 1019.03 1019.15 1019.26 1019.38 1019.79 1020.13 1020.31 1020.38 1020.71 1021.45 1021.89 1022.22 1023.08 1023.96 1024.87 1025.57 1025.99 1026.81 1027.57 1028.25 1028.84 1029.20 1029.61 1030.05 1030.34 1030.55 1030.67 1030.71 1030.62
1016.35 1015.19 1015.90 1016.32 1015.49 1015.06 1015.40 1015.25 1015.61 1015.86 1016.54 1017.39 1017.83 1018.21 1018.45 1018.89 1019.07 1018.91 1019.03 1019.63 1019.94 1020.00 1020.16 1020.44 1021.13 1021.68 1022.29 1022.98 1023.71 1024.66 1025.15 1026.09 1027.02 1027.77 1028.40 1028.75 1029.06 1029.38 1029.81 1030.14 1030.33 1030.53 1030.39 1030.20
1015.69 1015.44 1015.35 1015.80 1015.34 1015.08 1015.29 1015.24 1015.28 1015.74 1016.30 1016.59 1017.02 1017.63 1018.29 1018.80 1018.53 1018.44 1018.68 1019.13 1019.55 1019.68 1020.00 1020.38 1021.36 1021.90 1022.42 1022.97 1023.70 1024.35 1025.24 1026.06 1027.02 1027.84 1028.23 1028.53 1028.88 1029.06 1029.43 1029.68 1029.76 1029.74 1029.69 1029.40
1014.47 1015.06 1015.07 1015.07 1014.81 1015.09 1015.09 1014.88 1014.80 1015.35 1015.80 1016.29 1016.73 1017.26 1017.77 1018.24 1018.10 1018.27 1018.45 1018.89 1019.12 1019.36 1019.91 1020.41 1020.90 1021.41 1021.92 1022.88 1023.80 1024.55 1025.31 1026.17 1027.14 1027.66 1028.08 1028.36 1028.69 1028.97 1029.23 1029.21 1028.98 1028.66 1028.44 1028.21
1013.72 1013.58 1013.86 1013.50 1013.35 1013.61 1013.92 1013.86 1013.88 1014.85 1015.30 1015.57 1016.27 1016.93 1017.18 1017.63 1017.81 1018.05 1018.36 1018.45 1018.78 1019.32 1019.77 1020.30 1020.75 1021.16 1021.94 1022.89 1023.85 1024.86 1025.46 1026.14 1027.01 1027.57 1027.91 1028.09 1028.36 1028.65 1028.81 1028.80 1028.43 1027.84 1026.96 1026.22
Wind_Speed
1 4 9 13 10 3 5 5 6 3 3 2 7 7 12 4 7 8 7 6 6 6 5 6 9 10 10 11 11 12 12 11 7 5 4 7 7 7 9 10 13 13 11 11
5 7 10 4 5 5 3 5 6 5 4 6 6 10 2 3 2 6 8 6 6 4 5 6 8 9 11 10 11 12 12 12 9 5 4 4 4 5 6 8 12 12 13 13
8 6 7 7 5 6 5 8 5 8 1 2 1 8 4 3 4 6 5 5 5 5 5 6 7 7 7 10 9 11 10 11 10 9 4 4 4 4 6 9 9 12 13 13
6 4 6 4 6 8 6 8 7 4 3 4 2 6 4 4 3 3 5 6 6 6 4 3 4 5 7 7 7 7 9 10 11 10 12 14 10 9 4 4 5 8 12 13
8 7 5 6 7 7 6 5 5 3 3 1 3 0 8 5 6 6 8 7 6 6 6 6 5 5 5 6 6 6 8 11 10 10 9 9 10 6 3 4 8 8 8 11
5 2 6 8 2 6 9 7 7 5 3 1 9 8 5 6 6 6 7 7 7 6 5 4 4 4 4 6 6 7 8 8 8 9 10 11 10 7 7 7 7 6 4 7
1 5 3 3 6 2 4 7 1 3 1 7 1 2 8 5 3 5 14 12 9 7 6 6 6 4 4 5 4 5 6 8 6 9 9 8 9 8 9 6 5 6 5 4
8 5 11 7 8 9 7 7 7 8 5 4 2 7 7 3 5 7 9 11 9 8 6 6 6 5 5 6 5 5 6 8 7 7 8 7 7 4 4 5 4 4 4 4
7 5 1 2 2 4 5 5 2 7 3 2 6 5 2 1 1 4 7 10 10 8 9 9 7 7 7 6 5 6 6 6 6 7 6 6 5 6 6 5 4 3 3 3
7 2 1 2 3 4 4 6 5 3 2 6 4 5 5 5 8 6 8 11 8 8 8 8 8 7 5 5 5 6 6 6 6 7 6 5 6 6 5 4 6 6 6 6
6 4 1 4 6 10 3 3 3 3 4 6 3 6 6 8 9 13 12 11 11 11 10 8 7 7 7 6 6 6 6 7 6 6 5 6 5 6 6 5 5 5 4 5
7 5 5 7 2 1 0 7 7 7 7 3 1 12 2 4 11 16 14 11 9 8 8 8 8 8 7 7 6 7 6 6 6 5 5 5 4 4 5 4 5 5 5 5
10 3 3 6 1 1 5 5 3 4 4 8 6 9 3 4 7 8 9 9 8 8 8 7 8 9 8 7 7 7 7 7 6 5 5 4 3 3 3 4 4 4 4 4
7 5 9 11 7 6 6 7 6 6 5 5 14 15 3 4 8 7 8 7 8 9 9 8 6 9 8 8 8 7 7 6 6 5 5 4 4 3 2 3 3 3 4 4
5 7 5 3 4 5 7 7 10 10 12 13 13 14 7 11 10 10 8 6 7 8 9 9 10 9 9 7 7 7 7 7 6 6 6 5 4 3 3 3 2 3 3 4
3 1 3 2 2 1 5 9 12 17 4 6 4 12 8 5 4 5 8 8 8 9 8 8 8 8 10 9 10 8 7 7 7 7 6 5 3 3 3 3 4 3 4 4
6 7 4 6 4 5 10 10 15 6 6 11 13 14 5 5 7 9 9 8 8 8 8 7 8 9 9 10 9 9 8 6 6 6 5 5 4 3 3 2 2 4 4 5
7 5 2 5 4 8 3 4 1 14 8 9 1 4 6 5 6 5 5 8 9 8 8 7 6 7 8 6 7 5 7 7 7 6 6 5 4 3 2 1 2 3 3 5
3 6 4 5 6 7 4 6 8 9 11 11 11 9 6 5 4 6 7 8 8 9 8 8 7 6 5 7 6 6 6 7 7 7 6 5 3 3 2 2 3 3 4 5
3 2 5 4 5 8 3 1 5 5 7 10 10 9 7 6 2 6 6 6 9 8 5 8 7 4 5 6 6 7 7 7 8 6 5 4 3 3 1 2 3 1 3 7
4 1 9 5 5 8 6 6 5 7 8 3 5 5 7 5 7 4 4 6 7 8 9 5 6 7 8 6 7 7 6 9 5 5 5 4 3 2 1 1 1 2 4 7
9 9 5 2 3 10 7 4 9 6 2 6 6 6 8 7 6 6 7 6 7 10 8 7 6 7 6 7 8 7 9 6 6 5 4 3 1 1 1 1 2 3 4 5
3 7 9 12 8 0 14 4 6 5 6 6 6 7 8 7 7 9 8 9 9 10 9 5 7 7 6 7 8 9 5 8 6 5 4 2 1 2 2 2 4 3 3 4
4 3 3 3 4 5 9 5 3 6 8 6 6 5 6 8 9 7 7 7 8 7 8 5 5 7 7 6 7 4 8 7 6 5 4 3 3 2 3 3 4 3 4 5
5 7 6 1 1 2 7 7 6 9 7 5 5 7 9 7 9 7 7 8 7 7 5 5 8 8 9 8 7 6 7 7 5 4 3 3 2 3 4 5 5 5 6 7
6 8 6 6 9 7 6 10 12 8 8 9 8 6 6 7 9 6 8 8 6 8 3 5 6 6 6 8 7 6 6 6 6 4 4 4 3 3 4 4 5 12 16 17
Wind_Direction
33 119 208 201 200 153 149 176 210 249 223 133 236 236 263 84 100 126 130 114 89 58 4 8 10 5 7 19 27 27 32 13 27 30 49 50 56 46 47 44 37 38 37 43
54 224 227 138 167 181 146 175 238 283 228 163 262 255 200 19 104 157 141 128 114 100 43 23 20 19 21 12 15 26 28 28 34 32 40 72 88 64 68 47 45 36 34 29
170 213 144 156 165 172 200 207 187 213 10 258 24 286 170 31 77 82 94 121 118 113 87 36 27 24 7 24 18 23 22 34 32 34 63 67 59 42 40 33 41 32 36 34
228 263 180 167 208 148 220 196 189 178 116 230 125 273 303 154 124 139 149 151 143 129 104 78 42 42 33 22 10 36 46 46 42 39 65 68 74 75 36 43 54 45 38 39
233 176 176 197 213 158 223 119 157 141 154 85 243 322 256 129 224 196 199 182 175 167 151 125 89 60 38 27 37 40 49 54 49 58 71 78 84 77 58 41 50 42 34 37
238 272 165 200 117 165 146 83 53 53 83 273 226 184 254 193 209 167 172 191 178 177 166 132 110 99 65 38 40 38 61 53 51 65 65 78 81 73 68 44 50 31 21 33
195 220 192 158 94 57 99 103 342 350 338 232 329 164 247 185 182 189 183 177 179 186 175 163 157 133 117 95 79 76 79 74 63 74 72 75 79 75 72 57 52 41 23 22
167 262 167 192 184 172 181 163 161 209 204 244 61 238 258 351 327 266 162 164 173 178 182 180 173 168 149 141 132 121 105 97 80 75 74 69 71 75 78 72 72 54 46 32
157 267 136 115 125 131 191 196 146 100 17 46 210 261 227 50 38 106 144 161 187 183 186 185 179 184 178 167 153 134 114 108 104 101 105 95 95 82 82 77 78 77 66 33
206 139 64 131 110 40 154 164 79 2 250 260 253 256 225 228 213 167 178 192 202 201 193 185 186 193 192 170 157 155 147 134 139 127 109 95 90 84 81 68 46 34 23 15
160 127 248 119 202 174 141 174 80 140 150 197 282 253 209 206 168 185 201 203 198 201 204 191 191 194 185 177 176 168 161 153 146 136 134 119 95 73 64 58 42 28 17 12
194 137 165 191 127 15 37 197 162 188 226 240 135 261 349 238 185 180 194 202 206 204 195 187 189 187 187 196 188 184 176 172 177 159 133 117 103 76 61 43 26 18 11 2
178 184 85 358 62 65 207 196 166 109 72 197 208 265 356 95 152 191 185 197 198 202 201 197 193 195 194 197 196 195 194 197 183 161 146 129 120 94 65 39 24 14 355 346
145 162 173 208 191 139 173 188 190 166 218 207 240 271 197 200 194 188 204 198 194 202 204 206 190 202 198 197 197 196 205 200 185 175 170 169 171 128 84 60 39 21 3 359
173 209 172 161 149 175 199 189 174 192 215 218 254 228 187 205 201 203 192 191 200 214 215 207 208 204 200 197 204 207 206 193 180 179 178 183 166 130 101 74 38 12 17 8
344 183 98 309 34 271 259 229 176 212 195 240 215 258 184 206 207 163 202 203 223 234 231 215 211 196 198 202 210 205 203 197 177 181 184 168 137 136 91 52 19 3 358 352
168 143 138 223 76 66 276 219 211 188 192 197 214 241 135 196 204 206 220 210 214 223 228 223 212 204 201 204 204 202 199 167 166 160 158 159 146 110 68 31 3 350 341 336
145 122 92 122 84 235 237 41 165 216 234 210 314 216 197 183 204 204 196 194 213 214 214 214 208 209 216 203 199 180 163 162 163 167 165 168 156 115 115 81 357 339 342 338
326 130 135 168 199 336 244 186 164 169 250 179 206 232 178 142 131 248 208 205 207 199 200 199 197 196 192 205 191 166 157 161 164 180 177 172 125 89 37 360 343 336 327 317
80 70 193 162 185 213 269 114 121 106 275 209 179 212 151 126 154 251 197 191 210 207 199 197 196 181 185 208 165 157 174 172 194 175 160 139 119 114 15 341 328 277 296 301
116 77 213 208 231 278 210 195 152 127 248 169 161 155 148 176 201 218 163 205 205 199 200 181 170 200 217 162 152 182 166 202 158 134 127 130 112 101 320 290 273 284 299 300
157 162 190 115 198 267 144 66 174 206 18 144 164 179 184 211 237 223 229 242 216 208 199 200 204 223 201 165 164 181 197 144 136 136 142 148 126 316 287 223 277 288 278 281
230 190 179 192 201 65 184 147 181 157 145 190 184 202 202 208 227 228 222 219 224 213 219 203 203 219 188 174 180 186 171 144 144 146 162 174 220 258 257 245 274 273 248 263
259 171 198 123 182 192 203 232 199 187 206 190 206 194 190 222 235 244 235 226 217 222 229 198 161 205 214 183 175 155 148 142 144 160 192 208 238 275 259 264 255 225 246 260
195 135 155 283 19 70 276 234 217 213 213 195 191 211 218 214 257 236 248 240 227 228 218 177 197 209 215 164 158 148 143 141 156 161 183 219 233 238 264 258 251 251 248 241
179 177 164 203 195 170 200 204 216 210 217 224 217 241 231 198 235 227 241 234 224 237 192 201 211 190 172 165 152 151 147 149 156 178 201 212 215 229 253 263 279 278 281 284